Time,TemperatureF,DewpointF,PressureIn,WindDirection,WindDirectionDegrees,WindSpeedMPH,WindSpeedGustMPH,Humidity,HourlyPrecipIn,Conditions,Clouds,dailyrainin,SoftwareType,DateUTC
2013-09-10 00:00:00,81.0,72.7,29.91,WSW,248,5.0,5.0,76,0.00,,,0.00,Wunderground v.1.15,2013-09-10 04:00:00,
2013-09-10 00:05:00,80.9,72.6,29.91,SW,236,5.0,5.0,76,0.00,,,0.00,Wunderground v.1.15,2013-09-10 04:05:00,
2013-09-10 00:10:00,80.8,72.5,29.91,WSW,256,5.0,5.0,76,0.00,,,0.00,Wunderground v.1.15,2013-09-10 04:10:00,
2013-09-10 00:15:00,80.6,72.3,29.91,SW,226,4.0,5.0,76,0.00,,,0.00,Wunderground v.1.15,2013-09-10 04:15:00,
2013-09-10 00:20:00,80.6,72.3,29.91,WSW,253,3.0,6.0,76,0.00,,,0.00,Wunderground v.1.15,2013-09-10 04:20:00,
2013-09-10 00:25:00,80.5,72.2,29.91,SSW,203,4.0,6.0,76,0.00,,,0.00,Wunderground v.1.15,2013-09-10 04:25:00,
2013-09-10 00:30:00,80.3,72.4,29.91,WSW,240,4.0,4.0,77,0.00,,,0.00,Wunderground v.1.15,2013-09-10 04:30:00,
2013-09-10 00:35:00,80.2,72.3,29.91,SW,222,3.0,6.0,77,0.00,,,0.00,Wunderground v.1.15,2013-09-10 04:35:00,
2013-09-10 00:40:00,80.1,72.2,29.91,SW,218,3.0,3.0,77,0.00,,,0.00,Wunderground v.1.15,2013-09-10 04:40:00,
2013-09-10 00:45:00,79.9,72.0,29.91,SW,218,4.0,4.0,77,0.00,,,0.00,Wunderground v.1.15,2013-09-10 04:45:00,
2013-09-10 00:50:00,79.8,71.9,29.91,WSW,245,4.0,4.0,77,0.00,,,0.00,Wunderground v.1.15,2013-09-10 04:50:00,
2013-09-10 00:55:00,79.7,71.8,29.91,West,272,3.0,4.0,77,0.00,,,0.00,Wunderground v.1.15,2013-09-10 04:55:00,
2013-09-10 01:00:00,79.5,72.0,29.91,SSW,212,3.0,5.0,78,0.00,,,0.00,Wunderground v.1.15,2013-09-10 05:00:00,
2013-09-10 01:10:00,79.2,71.7,29.91,West,259,3.0,3.0,78,0.00,,,0.00,Wunderground v.1.15,2013-09-10 05:10:00,
2013-09-10 01:15:00,79.1,72.0,29.91,WSW,243,3.0,3.0,79,0.00,,,0.00,Wunderground v.1.15,2013-09-10 05:15:00,
2013-09-10 01:20:00,78.9,71.8,29.91,West,260,2.0,3.0,79,0.00,,,0.00,Wunderground v.1.15,2013-09-10 05:20:00,
2013-09-10 01:25:00,78.6,71.9,29.92,West,263,2.0,3.0,80,0.00,,,0.00,Wunderground v.1.15,2013-09-10 05:25:00,
2013-09-10 01:30:00,78.6,71.9,29.91,SSW,201,3.0,3.0,80,0.00,,,0.00,Wunderground v.1.15,2013-09-10 05:30:00,
2013-09-10 01:35:00,78.5,71.8,29.92,West,260,3.0,3.0,80,0.00,,,0.00,Wunderground v.1.15,2013-09-10 05:35:00,
2013-09-10 01:40:00,78.3,71.6,29.92,WSW,250,3.0,3.0,80,0.00,,,0.00,Wunderground v.1.15,2013-09-10 05:40:00,
2013-09-10 01:45:00,78.1,71.8,29.92,SW,231,2.0,3.0,81,0.00,,,0.00,Wunderground v.1.15,2013-09-10 05:45:00,
2013-09-10 01:50:00,77.9,71.6,29.92,SW,217,2.0,2.0,81,0.00,,,0.00,Wunderground v.1.15,2013-09-10 05:50:00,
2013-09-10 01:55:00,77.7,71.8,29.92,WSW,253,2.0,2.0,82,0.00,,,0.00,Wunderground v.1.15,2013-09-10 05:55:00,
2013-09-10 02:00:00,77.5,71.6,29.92,West,262,2.0,2.0,82,0.00,,,0.00,Wunderground v.1.15,2013-09-10 06:00:00,
2013-09-10 02:10:00,77.2,71.6,29.92,WSW,253,2.0,3.0,83,0.00,,,0.00,Wunderground v.1.15,2013-09-10 06:10:00,
2013-09-10 02:15:00,77.1,71.5,29.92,West,272,2.0,3.0,83,0.00,,,0.00,Wunderground v.1.15,2013-09-10 06:15:00,
2013-09-10 02:20:00,77.0,71.4,29.93,West,269,3.0,3.0,83,0.00,,,0.00,Wunderground v.1.15,2013-09-10 06:20:00,
2013-09-10 02:30:00,76.7,71.5,29.93,SSW,207,2.0,2.0,84,0.00,,,0.00,Wunderground v.1.15,2013-09-10 06:30:00,
2013-09-10 02:35:00,76.5,71.3,29.93,West,269,2.0,2.0,84,0.00,,,0.00,Wunderground v.1.15,2013-09-10 06:35:00,
2013-09-10 02:40:00,76.4,71.2,29.93,WSW,253,2.0,2.0,84,0.00,,,0.00,Wunderground v.1.15,2013-09-10 06:40:00,
2013-09-10 02:45:00,76.3,71.1,29.93,West,274,2.0,2.0,84,0.00,,,0.00,Wunderground v.1.15,2013-09-10 06:45:00,
2013-09-10 02:50:00,76.1,70.9,29.93,SW,229,2.0,2.0,84,0.00,,,0.00,Wunderground v.1.15,2013-09-10 06:50:00,
2013-09-10 03:00:00,75.9,71.1,29.93,WSW,256,1.0,2.0,85,0.00,,,0.00,Wunderground v.1.15,2013-09-10 07:00:00,
2013-09-10 03:10:00,75.8,71.0,29.93,West,271,1.0,1.0,85,0.00,,,0.00,Wunderground v.1.15,2013-09-10 07:10:00,
2013-09-10 03:15:00,75.6,70.8,29.93,WSW,245,1.0,6.0,85,0.00,,,0.00,Wunderground v.1.15,2013-09-10 07:15:00,
2013-09-10 03:20:00,75.6,70.8,29.94,WSW,253,1.0,1.0,85,0.00,,,0.00,Wunderground v.1.15,2013-09-10 07:20:00,
2013-09-10 03:25:00,75.6,70.8,29.94,WSW,245,2.0,2.0,85,0.00,,,0.00,Wunderground v.1.15,2013-09-10 07:25:00,
2013-09-10 03:35:00,75.6,70.4,29.94,WSW,240,2.0,2.0,84,0.00,,,0.00,Wunderground v.1.15,2013-09-10 07:35:00,
2013-09-10 03:40:00,75.6,70.4,29.94,West,278,2.0,4.0,84,0.00,,,0.00,Wunderground v.1.15,2013-09-10 07:40:00,
2013-09-10 03:45:00,75.5,70.3,29.94,SW,236,2.0,4.0,84,0.00,,,0.00,Wunderground v.1.15,2013-09-10 07:45:00,
2013-09-10 03:50:00,75.5,70.3,29.94,SW,230,2.0,3.0,84,0.00,,,0.00,Wunderground v.1.15,2013-09-10 07:50:00,
2013-09-10 03:55:00,75.5,70.3,29.94,West,279,1.0,3.0,84,0.00,,,0.00,Wunderground v.1.15,2013-09-10 07:55:00,
2013-09-10 04:00:00,75.5,70.3,29.94,West,264,1.0,1.0,84,0.00,,,0.00,Wunderground v.1.15,2013-09-10 08:00:00,
2013-09-10 04:10:00,75.3,70.1,29.95,West,264,1.0,1.0,84,0.00,,,0.00,Wunderground v.1.15,2013-09-10 08:10:00,
2013-09-10 04:15:00,75.1,70.3,29.95,West,259,1.0,2.0,85,0.00,,,0.00,Wunderground v.1.15,2013-09-10 08:15:00,
2013-09-10 04:20:00,75.0,70.2,29.95,SW,236,1.0,2.0,85,0.00,,,0.00,Wunderground v.1.15,2013-09-10 08:20:00,
2013-09-10 04:25:00,75.0,70.2,29.95,West,278,1.0,2.0,85,0.00,,,0.00,Wunderground v.1.15,2013-09-10 08:25:00,
2013-09-10 04:30:00,75.0,70.2,29.95,West,276,2.0,2.0,85,0.00,,,0.00,Wunderground v.1.15,2013-09-10 08:30:00,
2013-09-10 04:40:00,75.0,70.2,29.95,SW,229,2.0,2.0,85,0.00,,,0.00,Wunderground v.1.15,2013-09-10 08:40:00,
2013-09-10 04:45:00,75.0,70.2,29.95,SW,221,3.0,3.0,85,0.00,,,0.00,Wunderground v.1.15,2013-09-10 08:45:00,
2013-09-10 04:50:00,74.9,70.4,29.95,WSW,247,3.0,3.0,86,0.00,,,0.00,Wunderground v.1.15,2013-09-10 08:50:00,
2013-09-10 04:55:00,74.7,70.2,29.96,SW,229,2.0,3.0,86,0.00,,,0.00,Wunderground v.1.15,2013-09-10 08:55:00,
2013-09-10 05:00:00,74.6,70.5,29.96,WSW,250,2.0,2.0,87,0.00,,,0.00,Wunderground v.1.15,2013-09-10 09:00:00,
2013-09-10 05:05:00,74.5,70.4,29.96,SW,232,2.0,4.0,87,0.00,,,0.00,Wunderground v.1.15,2013-09-10 09:05:00,
2013-09-10 05:10:00,74.4,70.3,29.96,WSW,252,3.0,3.0,87,0.00,,,0.00,Wunderground v.1.15,2013-09-10 09:10:00,
2013-09-10 05:15:00,74.4,70.3,29.96,West,269,2.0,3.0,87,0.00,,,0.00,Wunderground v.1.15,2013-09-10 09:15:00,
2013-09-10 05:20:00,74.3,70.2,29.96,WSW,252,3.0,3.0,87,0.00,,,0.00,Wunderground v.1.15,2013-09-10 09:20:00,
2013-09-10 05:25:00,74.3,70.5,29.96,SW,233,3.0,3.0,88,0.00,,,0.00,Wunderground v.1.15,2013-09-10 09:25:00,
2013-09-10 05:30:00,74.2,70.4,29.96,West,266,3.0,3.0,88,0.00,,,0.00,Wunderground v.1.15,2013-09-10 09:30:00,
2013-09-10 05:40:00,74.1,70.3,29.97,West,264,2.0,2.0,88,0.00,,,0.00,Wunderground v.1.15,2013-09-10 09:40:00,
2013-09-10 05:45:00,74.0,70.2,29.96,SW,233,2.0,4.0,88,0.00,,,0.00,Wunderground v.1.15,2013-09-10 09:45:00,
2013-09-10 05:50:00,73.9,70.1,29.97,SSW,206,2.0,5.0,88,0.00,,,0.00,Wunderground v.1.15,2013-09-10 09:50:00,
2013-09-10 05:55:00,73.9,70.1,29.97,WSW,250,2.0,5.0,88,0.00,,,0.00,Wunderground v.1.15,2013-09-10 09:55:00,
2013-09-10 06:00:00,73.7,70.3,29.97,West,267,2.0,2.0,89,0.00,,,0.00,Wunderground v.1.15,2013-09-10 10:00:00,
2013-09-10 06:10:00,73.6,70.2,29.97,WNW,283,2.0,2.0,89,0.00,,,0.00,Wunderground v.1.15,2013-09-10 10:10:00,
2013-09-10 06:15:00,73.5,70.1,29.97,SW,222,2.0,3.0,89,0.00,,,0.00,Wunderground v.1.15,2013-09-10 10:15:00,
2013-09-10 06:20:00,73.5,70.1,29.97,WSW,252,2.0,2.0,89,0.00,,,0.00,Wunderground v.1.15,2013-09-10 10:20:00,
2013-09-10 06:25:00,73.5,70.1,29.97,West,277,2.0,2.0,89,0.00,,,0.00,Wunderground v.1.15,2013-09-10 10:25:00,
2013-09-10 06:30:00,73.4,70.0,29.97,West,259,2.0,3.0,89,0.00,,,0.00,Wunderground v.1.15,2013-09-10 10:30:00,
2013-09-10 06:35:00,73.4,70.0,29.97,SW,235,2.0,3.0,89,0.00,,,0.00,Wunderground v.1.15,2013-09-10 10:35:00,
2013-09-10 06:45:00,73.5,70.1,29.98,West,271,3.0,3.0,89,0.00,,,0.00,Wunderground v.1.15,2013-09-10 10:45:00,
2013-09-10 06:50:00,73.4,70.0,29.98,WSW,253,2.0,4.0,89,0.00,,,0.00,Wunderground v.1.15,2013-09-10 10:50:00,
2013-09-10 06:55:00,73.4,70.0,29.98,WSW,252,2.0,4.0,89,0.00,,,0.00,Wunderground v.1.15,2013-09-10 10:55:00,
2013-09-10 07:00:00,73.3,70.2,29.98,WSW,248,2.0,3.0,90,0.00,,,0.00,Wunderground v.1.15,2013-09-10 11:00:00,
2013-09-10 07:10:00,73.1,70.0,29.98,WSW,242,2.0,4.0,90,0.00,,,0.00,Wunderground v.1.15,2013-09-10 11:10:00,
2013-09-10 07:20:00,72.9,69.8,29.98,WSW,242,2.0,2.0,90,0.00,,,0.00,Wunderground v.1.15,2013-09-10 11:20:00,
2013-09-10 07:25:00,72.8,70.0,29.99,SW,217,2.0,3.0,91,0.00,,,0.00,Wunderground v.1.15,2013-09-10 11:25:00,
2013-09-10 07:30:00,72.7,69.9,29.99,West,260,2.0,2.0,91,0.00,,,0.00,Wunderground v.1.15,2013-09-10 11:30:00,
2013-09-10 07:35:00,72.7,69.9,29.99,WSW,252,2.0,2.0,91,0.00,,,0.00,Wunderground v.1.15,2013-09-10 11:35:00,
2013-09-10 07:40:00,72.7,69.9,29.99,SSW,203,2.0,2.0,91,0.00,,,0.00,Wunderground v.1.15,2013-09-10 11:40:00,
2013-09-10 07:50:00,72.7,69.9,29.99,SW,236,2.0,2.0,91,0.00,,,0.00,Wunderground v.1.15,2013-09-10 11:50:00,
2013-09-10 07:55:00,72.8,70.0,29.99,WSW,253,2.0,2.0,91,0.00,,,0.00,Wunderground v.1.15,2013-09-10 11:55:00,
2013-09-10 08:00:00,72.8,69.7,29.99,WSW,239,1.0,1.0,90,0.00,,,0.00,Wunderground v.1.15,2013-09-10 12:00:00,
2013-09-10 08:10:00,73.2,70.1,30.00,West,277,2.0,2.0,90,0.00,,,0.00,Wunderground v.1.15,2013-09-10 12:10:00,
2013-09-10 08:15:00,73.4,70.0,30.00,West,269,2.0,2.0,89,0.00,,,0.00,Wunderground v.1.15,2013-09-10 12:15:00,
2013-09-10 08:25:00,74.0,70.2,30.00,WSW,239,2.0,2.0,88,0.00,,,0.00,Wunderground v.1.15,2013-09-10 12:25:00,
2013-09-10 08:30:00,74.3,70.2,30.00,WSW,240,2.0,2.0,87,0.00,,,0.00,Wunderground v.1.15,2013-09-10 12:30:00,
2013-09-10 08:35:00,74.6,70.5,30.00,West,259,2.0,2.0,87,0.00,,,0.00,Wunderground v.1.15,2013-09-10 12:35:00,
2013-09-10 08:40:00,74.9,70.8,30.00,West,280,2.0,2.0,87,0.00,,,0.00,Wunderground v.1.15,2013-09-10 12:40:00,
2013-09-10 08:45:00,75.2,70.7,30.00,SW,226,3.0,3.0,86,0.00,,,0.00,Wunderground v.1.15,2013-09-10 12:45:00,
2013-09-10 08:50:00,75.5,70.7,30.01,West,259,3.0,3.0,85,0.00,,,0.00,Wunderground v.1.15,2013-09-10 12:50:00,
2013-09-10 08:55:00,75.8,71.0,30.01,WSW,243,3.0,3.0,85,0.00,,,0.00,Wunderground v.1.15,2013-09-10 12:55:00,
2013-09-10 09:00:00,76.1,70.9,30.01,West,269,3.0,3.0,84,0.00,,,0.00,Wunderground v.1.15,2013-09-10 13:00:00,
2013-09-10 09:10:00,76.8,70.9,30.01,SW,231,4.0,4.0,82,0.00,,,0.00,Wunderground v.1.15,2013-09-10 13:10:00,
2013-09-10 09:15:00,77.2,70.9,30.01,SW,229,3.0,4.0,81,0.00,,,0.00,Wunderground v.1.15,2013-09-10 13:15:00,
2013-09-10 09:25:00,77.9,70.9,30.01,WSW,250,3.0,6.0,79,0.00,,,0.00,Wunderground v.1.15,2013-09-10 13:25:00,
2013-09-10 09:30:00,78.2,70.8,30.01,West,269,4.0,4.0,78,0.00,,,0.00,Wunderground v.1.15,2013-09-10 13:30:00,
2013-09-10 09:35:00,78.6,71.2,30.01,West,259,4.0,4.0,78,0.00,,,0.00,Wunderground v.1.15,2013-09-10 13:35:00,
2013-09-10 09:40:00,79.2,71.0,30.01,SW,231,4.0,4.0,76,0.00,,,0.00,Wunderground v.1.15,2013-09-10 13:40:00,
2013-09-10 09:45:00,79.5,70.9,30.01,SSW,193,4.0,4.0,75,0.00,,,0.00,Wunderground v.1.15,2013-09-10 13:45:00,
2013-09-10 09:50:00,79.9,70.9,30.01,WNW,289,4.0,4.0,74,0.00,,,0.00,Wunderground v.1.15,2013-09-10 13:50:00,
2013-09-10 10:00:00,80.5,70.6,30.02,NW,311,5.0,5.0,72,0.00,,,0.00,Wunderground v.1.15,2013-09-10 14:00:00,
2013-09-10 10:10:00,81.4,71.5,30.02,West,265,4.0,5.0,72,0.00,,,0.00,Wunderground v.1.15,2013-09-10 14:10:00,
2013-09-10 10:15:00,81.9,71.2,30.02,SW,232,4.0,5.0,70,0.00,,,0.00,Wunderground v.1.15,2013-09-10 14:15:00,
2013-09-10 10:20:00,82.2,71.0,30.02,WSW,253,4.0,4.0,69,0.00,,,0.00,Wunderground v.1.15,2013-09-10 14:20:00,
2013-09-10 10:30:00,82.9,71.3,30.02,WNW,299,4.0,4.0,68,0.00,,,0.00,Wunderground v.1.15,2013-09-10 14:30:00,
2013-09-10 10:35:00,83.3,71.2,30.02,WNW,290,5.0,5.0,67,0.00,,,0.00,Wunderground v.1.15,2013-09-10 14:35:00,
2013-09-10 10:40:00,83.8,69.9,30.02,WNW,282,5.0,5.0,63,0.00,,,0.00,Wunderground v.1.15,2013-09-10 14:40:00,
2013-09-10 10:45:00,84.1,70.6,30.02,West,259,5.0,5.0,64,0.00,,,0.00,Wunderground v.1.15,2013-09-10 14:45:00,
2013-09-10 10:50:00,84.5,70.0,30.02,West,263,6.0,6.0,62,0.00,,,0.00,Wunderground v.1.15,2013-09-10 14:50:00,
2013-09-10 10:55:00,85.1,69.7,30.02,West,280,5.0,6.0,60,0.00,,,0.00,Wunderground v.1.15,2013-09-10 14:55:00,
2013-09-10 11:00:00,85.4,69.9,30.02,WSW,249,5.0,6.0,60,0.00,,,0.00,Wunderground v.1.15,2013-09-10 15:00:00,
2013-09-10 11:10:00,86.2,69.7,30.02,NW,306,6.0,6.0,58,0.00,,,0.00,Wunderground v.1.15,2013-09-10 15:10:00,
2013-09-10 11:15:00,86.6,69.0,30.02,WSW,258,5.0,7.0,56,0.00,,,0.00,Wunderground v.1.15,2013-09-10 15:15:00,
2013-09-10 11:20:00,86.9,68.8,30.02,West,269,6.0,7.0,55,0.00,,,0.00,Wunderground v.1.15,2013-09-10 15:20:00,
2013-09-10 11:25:00,87.5,68.8,30.02,West,278,6.0,7.0,54,0.00,,,0.00,Wunderground v.1.15,2013-09-10 15:25:00,
2013-09-10 11:35:00,88.2,67.8,30.02,WNW,302,6.0,7.0,51,0.00,,,0.00,Wunderground v.1.15,2013-09-10 15:35:00,
2013-09-10 11:40:00,88.5,67.5,30.02,WNW,282,7.0,7.0,50,0.00,,,0.00,Wunderground v.1.15,2013-09-10 15:40:00,
2013-09-10 11:45:00,88.4,67.4,30.02,NW,310,8.0,14.0,50,0.00,,,0.00,Wunderground v.1.15,2013-09-10 15:45:00,
2013-09-10 11:50:00,88.3,67.3,30.02,SW,229,9.0,9.0,50,0.00,,,0.00,Wunderground v.1.15,2013-09-10 15:50:00,
2013-09-10 11:55:00,88.6,67.6,30.02,WNW,302,7.0,9.0,50,0.00,,,0.00,Wunderground v.1.15,2013-09-10 15:55:00,
2013-09-10 12:00:00,89.0,67.4,30.02,West,265,7.0,7.0,49,0.00,,,0.00,Wunderground v.1.15,2013-09-10 16:00:00,
2013-09-10 12:10:00,89.2,67.5,30.02,NW,306,7.0,7.0,49,0.00,,,0.00,Wunderground v.1.15,2013-09-10 16:10:00,
2013-09-10 12:15:00,89.7,66.8,30.02,West,269,7.0,7.0,47,0.00,,,0.00,Wunderground v.1.15,2013-09-10 16:15:00,
2013-09-10 12:20:00,89.8,67.5,30.02,SSW,210,6.0,7.0,48,0.00,,,0.00,Wunderground v.1.15,2013-09-10 16:20:00,
2013-09-10 12:25:00,90.1,67.8,30.02,West,263,7.0,7.0,48,0.00,,,0.00,Wunderground v.1.15,2013-09-10 16:25:00,
2013-09-10 12:30:00,90.5,67.5,30.01,SW,222,7.0,10.0,47,0.00,,,0.00,Wunderground v.1.15,2013-09-10 16:30:00,
2013-09-10 12:35:00,90.9,67.3,30.01,NW,314,6.0,10.0,46,0.00,,,0.00,Wunderground v.1.15,2013-09-10 16:35:00,
2013-09-10 12:40:00,91.0,67.3,30.01,WNW,283,6.0,6.0,46,0.00,,,0.00,Wunderground v.1.15,2013-09-10 16:40:00,
2013-09-10 12:45:00,90.9,67.3,30.02,NW,304,7.0,8.0,46,0.00,,,0.00,Wunderground v.1.15,2013-09-10 16:45:00,
2013-09-10 12:50:00,91.4,66.4,30.02,West,274,7.0,7.0,44,0.00,,,0.00,Wunderground v.1.15,2013-09-10 16:50:00,
2013-09-10 12:55:00,91.3,66.3,30.02,WNW,295,7.0,7.0,44,0.00,,,0.00,Wunderground v.1.15,2013-09-10 16:55:00,
2013-09-10 13:00:00,91.5,67.2,30.02,West,278,7.0,8.0,45,0.00,,,0.00,Wunderground v.1.15,2013-09-10 17:00:00,
2013-09-10 13:10:00,92.0,67.0,30.01,WNW,284,6.0,10.0,44,0.00,,,0.00,Wunderground v.1.15,2013-09-10 17:10:00,
2013-09-10 13:15:00,92.1,67.1,30.02,SW,233,6.0,10.0,44,0.00,,,0.00,Wunderground v.1.15,2013-09-10 17:15:00,
2013-09-10 13:20:00,92.2,66.5,30.01,WSW,248,6.0,6.0,43,0.00,,,0.00,Wunderground v.1.15,2013-09-10 17:20:00,
2013-09-10 13:25:00,92.1,65.7,30.01,NW,322,7.0,7.0,42,0.00,,,0.00,Wunderground v.1.15,2013-09-10 17:25:00,
2013-09-10 13:30:00,92.2,66.5,30.01,WSW,255,6.0,6.0,43,0.00,,,0.00,Wunderground v.1.15,2013-09-10 17:30:00,
2013-09-10 13:35:00,92.5,66.1,30.01,WNW,302,6.0,11.0,42,0.00,,,0.00,Wunderground v.1.15,2013-09-10 17:35:00,
2013-09-10 13:45:00,92.9,64.3,30.01,WNW,287,9.0,13.0,39,0.00,,,0.00,Wunderground v.1.15,2013-09-10 17:45:00,
2013-09-10 13:50:00,92.8,64.2,30.01,WNW,290,10.0,10.0,39,0.00,,,0.00,Wunderground v.1.15,2013-09-10 17:50:00,
2013-09-10 13:55:00,93.5,64.8,30.01,WSW,242,8.0,10.0,39,0.00,,,0.00,Wunderground v.1.15,2013-09-10 17:55:00,
2013-09-10 14:00:00,93.5,64.8,30.01,WNW,298,7.0,10.0,39,0.00,,,0.00,Wunderground v.1.15,2013-09-10 18:00:00,
2013-09-10 14:10:00,93.6,64.2,30.01,NW,305,9.0,12.0,38,0.00,,,0.00,Wunderground v.1.15,2013-09-10 18:10:00,
2013-09-10 14:15:00,93.9,64.4,30.01,SW,217,9.0,12.0,38,0.00,,,0.00,Wunderground v.1.15,2013-09-10 18:15:00,
2013-09-10 14:20:00,93.8,64.3,30.01,WSW,250,8.0,11.0,38,0.00,,,0.00,Wunderground v.1.15,2013-09-10 18:20:00,
2013-09-10 14:25:00,93.6,63.4,30.01,WNW,290,9.0,11.0,37,0.00,,,0.00,Wunderground v.1.15,2013-09-10 18:25:00,
2013-09-10 14:30:00,93.7,64.3,30.01,WSW,242,9.0,9.0,38,0.00,,,0.00,Wunderground v.1.15,2013-09-10 18:30:00,
2013-09-10 14:35:00,94.0,65.3,30.01,WSW,252,7.0,9.0,39,0.00,,,0.00,Wunderground v.1.15,2013-09-10 18:35:00,
2013-09-10 14:40:00,94.3,64.0,30.01,West,262,7.0,7.0,37,0.00,,,0.00,Wunderground v.1.15,2013-09-10 18:40:00,
2013-09-10 14:50:00,94.4,64.1,30.01,West,273,8.0,8.0,37,0.00,,,0.00,Wunderground v.1.15,2013-09-10 18:50:00,
2013-09-10 14:55:00,94.5,65.0,30.01,NW,305,7.0,8.0,38,0.00,,,0.00,Wunderground v.1.15,2013-09-10 18:55:00,
2013-09-10 15:00:00,94.4,65.6,30.00,WSW,248,7.0,10.0,39,0.00,,,0.00,Wunderground v.1.15,2013-09-10 19:00:00,
2013-09-10 15:10:00,94.4,64.1,30.00,WSW,250,8.0,8.0,37,0.00,,,0.00,Wunderground v.1.15,2013-09-10 19:10:00,
2013-09-10 15:20:00,94.1,63.9,30.00,WNW,300,7.0,10.0,37,0.00,,,0.00,Wunderground v.1.15,2013-09-10 19:20:00,
2013-09-10 15:25:00,94.3,64.8,29.99,West,270,8.0,10.0,38,0.00,,,0.00,Wunderground v.1.15,2013-09-10 19:25:00,
2013-09-10 15:30:00,94.5,64.2,29.99,WNW,285,8.0,8.0,37,0.00,,,0.00,Wunderground v.1.15,2013-09-10 19:30:00,
2013-09-10 15:35:00,94.8,63.7,30.00,West,276,8.0,8.0,36,0.00,,,0.00,Wunderground v.1.15,2013-09-10 19:35:00,
2013-09-10 15:40:00,94.7,64.4,30.00,West,261,7.0,7.0,37,0.00,,,0.00,Wunderground v.1.15,2013-09-10 19:40:00,
2013-09-10 15:45:00,94.6,65.1,30.00,West,267,7.0,11.0,38,0.00,,,0.00,Wunderground v.1.15,2013-09-10 19:45:00,
2013-09-10 15:55:00,94.7,63.6,29.99,WNW,294,8.0,15.0,36,0.00,,,0.00,Wunderground v.1.15,2013-09-10 19:55:00,
2013-09-10 16:00:00,94.4,64.1,29.99,SW,220,8.0,8.0,37,0.00,,,0.00,Wunderground v.1.15,2013-09-10 20:00:00,
2013-09-10 16:10:00,94.8,63.7,29.99,WNW,298,6.0,10.0,36,0.00,,,0.00,Wunderground v.1.15,2013-09-10 20:10:00,
2013-09-10 16:15:00,94.7,63.6,29.99,West,267,6.0,10.0,36,0.00,,,0.00,Wunderground v.1.15,2013-09-10 20:15:00,
2013-09-10 16:20:00,94.4,63.3,29.99,WSW,251,7.0,7.0,36,0.00,,,0.00,Wunderground v.1.15,2013-09-10 20:20:00,
2013-09-10 16:25:00,94.5,64.2,29.99,WSW,245,7.0,7.0,37,0.00,,,0.00,Wunderground v.1.15,2013-09-10 20:25:00,
2013-09-10 16:30:00,94.8,64.5,29.99,WNW,290,6.0,6.0,37,0.00,,,0.00,Wunderground v.1.15,2013-09-10 20:30:00,
2013-09-10 16:35:00,95.0,63.1,29.99,WNW,302,6.0,10.0,35,0.00,,,0.00,Wunderground v.1.15,2013-09-10 20:35:00,
2013-09-10 16:40:00,94.9,63.0,29.99,WSW,238,7.0,9.0,35,0.00,,,0.00,Wunderground v.1.15,2013-09-10 20:40:00,
2013-09-10 16:45:00,94.9,64.6,29.99,WSW,245,7.0,9.0,37,0.00,,,0.00,Wunderground v.1.15,2013-09-10 20:45:00,
2013-09-10 16:55:00,94.9,63.8,29.99,North,349,6.0,6.0,36,0.00,,,0.00,Wunderground v.1.15,2013-09-10 20:55:00,
2013-09-10 17:00:00,94.7,63.6,29.99,WNW,288,6.0,6.0,36,0.00,,,0.00,Wunderground v.1.15,2013-09-10 21:00:00,
2013-09-10 17:10:00,94.7,63.6,29.98,West,267,6.0,6.0,36,0.00,,,0.00,Wunderground v.1.15,2013-09-10 21:10:00,
2013-09-10 17:15:00,94.6,64.3,29.98,SW,233,7.0,8.0,37,0.00,,,0.00,Wunderground v.1.15,2013-09-10 21:15:00,
2013-09-10 17:20:00,94.7,64.4,29.98,WSW,242,6.0,9.0,37,0.00,,,0.00,Wunderground v.1.15,2013-09-10 21:20:00,
2013-09-10 17:30:00,94.6,63.5,29.98,West,276,6.0,6.0,36,0.00,,,0.00,Wunderground v.1.15,2013-09-10 21:30:00,
2013-09-10 17:35:00,94.6,62.7,29.98,NW,307,6.0,9.0,35,0.00,,,0.00,Wunderground v.1.15,2013-09-10 21:35:00,
2013-09-10 17:40:00,94.2,63.2,29.98,NW,307,6.0,6.0,36,0.00,,,0.00,Wunderground v.1.15,2013-09-10 21:40:00,
2013-09-10 17:45:00,94.0,63.0,29.98,NNW,330,7.0,9.0,36,0.00,,,0.00,Wunderground v.1.15,2013-09-10 21:45:00,
2013-09-10 17:50:00,94.0,63.0,29.98,West,278,7.0,7.0,36,0.00,,,0.00,Wunderground v.1.15,2013-09-10 21:50:00,
2013-09-10 18:00:00,93.8,63.6,29.98,WNW,297,6.0,10.0,37,0.00,,,0.00,Wunderground v.1.15,2013-09-10 22:00:00,
2013-09-10 18:10:00,93.6,63.4,29.98,West,275,5.0,8.0,37,0.00,,,0.00,Wunderground v.1.15,2013-09-10 22:10:00,
2013-09-10 18:15:00,93.5,64.1,29.98,NW,309,6.0,8.0,38,0.00,,,0.00,Wunderground v.1.15,2013-09-10 22:15:00,
2013-09-10 18:20:00,93.4,64.0,29.98,WSW,256,6.0,9.0,38,0.00,,,0.00,Wunderground v.1.15,2013-09-10 22:20:00,
2013-09-10 18:25:00,93.1,63.7,29.98,WNW,284,6.0,9.0,38,0.00,,,0.00,Wunderground v.1.15,2013-09-10 22:25:00,
2013-09-10 18:35:00,93.1,64.5,29.98,West,262,4.0,9.0,39,0.00,,,0.00,Wunderground v.1.15,2013-09-10 22:35:00,
2013-09-10 18:40:00,92.9,64.3,29.98,West,271,4.0,4.0,39,0.00,,,0.00,Wunderground v.1.15,2013-09-10 22:40:00,
2013-09-10 18:45:00,92.7,64.8,29.98,WNW,287,3.0,4.0,40,0.00,,,0.00,Wunderground v.1.15,2013-09-10 22:45:00,
2013-09-10 18:50:00,92.7,64.8,29.98,West,269,3.0,3.0,40,0.00,,,0.00,Wunderground v.1.15,2013-09-10 22:50:00,
2013-09-10 18:55:00,92.6,65.5,29.99,SW,229,3.0,4.0,41,0.00,,,0.00,Wunderground v.1.15,2013-09-10 22:55:00,
2013-09-10 19:00:00,92.3,65.2,29.99,WNW,287,3.0,3.0,41,0.00,,,0.00,Wunderground v.1.15,2013-09-10 23:00:00,
2013-09-10 19:10:00,91.7,65.4,29.99,WSW,238,3.0,3.0,42,0.00,,,0.00,Wunderground v.1.15,2013-09-10 23:10:00,
2013-09-10 19:15:00,91.2,64.9,29.99,West,276,3.0,3.0,42,0.00,,,0.00,Wunderground v.1.15,2013-09-10 23:15:00,
2013-09-10 19:20:00,90.9,65.3,29.99,WSW,249,3.0,3.0,43,0.00,,,0.00,Wunderground v.1.15,2013-09-10 23:20:00,
2013-09-10 19:25:00,90.5,64.9,29.99,WSW,252,2.0,3.0,43,0.00,,,0.00,Wunderground v.1.15,2013-09-10 23:25:00,
2013-09-10 19:30:00,90.0,65.2,29.99,SW,229,2.0,2.0,44,0.00,,,0.00,Wunderground v.1.15,2013-09-10 23:30:00,
2013-09-10 19:40:00,89.1,65.0,30.00,West,271,1.0,1.0,45,0.00,,,0.00,Wunderground v.1.15,2013-09-10 23:40:00,
2013-09-10 19:45:00,88.6,65.2,30.00,West,270,1.0,1.0,46,0.00,,,0.00,Wunderground v.1.15,2013-09-10 23:45:00,
2013-09-10 19:50:00,88.1,65.3,30.00,West,271,0.0,0.0,47,0.00,,,0.00,Wunderground v.1.15,2013-09-10 23:50:00,
2013-09-10 19:55:00,87.5,64.8,30.00,West,275,0.0,1.0,47,0.00,,,0.00,Wunderground v.1.15,2013-09-10 23:55:00,
2013-09-10 20:00:00,87.1,65.0,30.00,WNW,287,0.0,1.0,48,0.00,,,0.00,Wunderground v.1.15,2013-09-11 00:00:00,
2013-09-10 20:05:00,86.7,64.7,30.00,West,278,1.0,1.0,48,0.00,,,0.00,Wunderground v.1.15,2013-09-11 00:05:00,
2013-09-10 20:10:00,86.2,64.8,30.00,WNW,284,1.0,1.0,49,0.00,,,0.00,Wunderground v.1.15,2013-09-11 00:10:00,
2013-09-10 20:15:00,85.7,64.9,30.00,WNW,284,0.0,1.0,50,0.00,,,0.00,Wunderground v.1.15,2013-09-11 00:15:00,
2013-09-10 20:20:00,85.4,65.2,30.00,West,262,0.0,0.0,51,0.00,,,0.00,Wunderground v.1.15,2013-09-11 00:20:00,
2013-09-10 20:25:00,85.0,64.8,30.00,West,263,0.0,0.0,51,0.00,,,0.00,Wunderground v.1.15,2013-09-11 00:25:00,
2013-09-10 20:30:00,84.5,64.9,30.01,WSW,242,0.0,0.0,52,0.00,,,0.00,Wunderground v.1.15,2013-09-11 00:30:00,
2013-09-10 20:40:00,83.2,65.4,30.01,WSW,241,0.0,0.0,55,0.00,,,0.00,Wunderground v.1.15,2013-09-11 00:40:00,
2013-09-10 20:45:00,82.8,65.0,30.01,WSW,242,0.0,0.0,55,0.00,,,0.00,Wunderground v.1.15,2013-09-11 00:45:00,
2013-09-10 20:50:00,82.8,65.0,30.01,WSW,242,0.0,0.0,55,0.00,,,0.00,Wunderground v.1.15,2013-09-11 00:50:00,
2013-09-10 20:55:00,82.7,65.4,30.01,WSW,241,0.0,0.0,56,0.00,,,0.00,Wunderground v.1.15,2013-09-11 00:55:00,
2013-09-10 21:00:00,82.4,65.6,30.01,WSW,241,0.0,0.0,57,0.00,,,0.00,Wunderground v.1.15,2013-09-11 01:00:00,
2013-09-10 21:10:00,81.6,65.4,30.01,WSW,242,0.0,0.0,58,0.00,,,0.00,Wunderground v.1.15,2013-09-11 01:10:00,
2013-09-10 21:15:00,81.3,65.1,30.01,WSW,242,0.0,0.0,58,0.00,,,0.00,Wunderground v.1.15,2013-09-11 01:15:00,
2013-09-10 21:20:00,81.1,65.4,30.01,WSW,241,0.0,0.0,59,0.00,,,0.00,Wunderground v.1.15,2013-09-11 01:20:00,
2013-09-10 21:25:00,80.6,64.9,30.02,WSW,241,0.0,0.0,59,0.00,,,0.00,Wunderground v.1.15,2013-09-11 01:25:00,
2013-09-10 21:30:00,80.0,65.3,30.02,WSW,242,0.0,0.0,61,0.00,,,0.00,Wunderground v.1.15,2013-09-11 01:30:00,
2013-09-10 21:35:00,79.6,65.4,30.02,WSW,242,0.0,0.0,62,0.00,,,0.00,Wunderground v.1.15,2013-09-11 01:35:00,
2013-09-10 21:45:00,79.3,65.1,30.02,WSW,242,0.0,0.0,62,0.00,,,0.00,Wunderground v.1.15,2013-09-11 01:45:00,
2013-09-10 21:50:00,79.1,65.0,30.02,WSW,242,0.0,0.0,62,0.00,,,0.00,Wunderground v.1.15,2013-09-11 01:50:00,
2013-09-10 21:55:00,79.1,65.4,30.02,WSW,241,0.0,0.0,63,0.00,,,0.00,Wunderground v.1.15,2013-09-11 01:55:00,
2013-09-10 22:00:00,79.0,65.3,30.02,SW,218,0.0,0.0,63,0.00,,,0.00,Wunderground v.1.15,2013-09-11 02:00:00,
2013-09-10 22:10:00,78.6,65.4,30.02,SW,218,0.0,0.0,64,0.00,,,0.00,Wunderground v.1.15,2013-09-11 02:10:00,
2013-09-10 22:20:00,78.6,65.4,30.02,SW,235,0.0,0.0,64,0.00,,,0.00,Wunderground v.1.15,2013-09-11 02:20:00,
2013-09-10 22:25:00,78.5,65.3,30.02,SW,235,0.0,0.0,64,0.00,,,0.00,Wunderground v.1.15,2013-09-11 02:25:00,
2013-09-10 22:30:00,78.5,65.8,30.02,WSW,242,0.0,0.0,65,0.00,,,0.00,Wunderground v.1.15,2013-09-11 02:30:00,
2013-09-10 22:35:00,78.6,65.8,30.02,WSW,256,0.0,1.0,65,0.00,,,0.00,Wunderground v.1.15,2013-09-11 02:35:00,
2013-09-10 22:40:00,78.7,65.9,30.02,West,275,1.0,1.0,65,0.00,,,0.00,Wunderground v.1.15,2013-09-11 02:40:00,
2013-09-10 22:50:00,78.8,66.0,30.02,WSW,242,1.0,2.0,65,0.00,,,0.00,Wunderground v.1.15,2013-09-11 02:50:00,
2013-09-10 22:55:00,78.9,66.1,30.02,WSW,253,2.0,2.0,65,0.00,,,0.00,Wunderground v.1.15,2013-09-11 02:55:00,
2013-09-10 23:00:00,78.8,66.0,30.02,WSW,239,2.0,2.0,65,0.00,,,0.00,Wunderground v.1.15,2013-09-11 03:00:00,
2013-09-10 23:10:00,78.6,65.8,30.02,West,264,1.0,3.0,65,0.00,,,0.00,Wunderground v.1.15,2013-09-11 03:10:00,
2013-09-10 23:15:00,78.7,65.9,30.02,WSW,239,2.0,4.0,65,0.00,,,0.00,Wunderground v.1.15,2013-09-11 03:15:00,
2013-09-10 23:25:00,78.9,66.1,30.02,SW,230,3.0,4.0,65,0.00,,,0.00,Wunderground v.1.15,2013-09-11 03:25:00,
2013-09-10 23:30:00,78.8,66.5,30.02,SW,233,3.0,3.0,66,0.00,,,0.00,Wunderground v.1.15,2013-09-11 03:30:00,
2013-09-10 23:35:00,78.7,66.4,30.02,SW,224,3.0,5.0,66,0.00,,,0.00,Wunderground v.1.15,2013-09-11 03:35:00,
2013-09-10 23:40:00,78.8,66.5,30.02,WSW,241,4.0,6.0,66,0.00,,,0.00,Wunderground v.1.15,2013-09-11 03:40:00,
2013-09-10 23:45:00,78.8,66.5,30.02,WSW,240,4.0,6.0,66,0.00,,,0.00,Wunderground v.1.15,2013-09-11 03:45:00,
2013-09-10 23:55:00,79.0,67.1,30.02,SSW,207,4.0,5.0,67,0.00,,,0.00,Wunderground v.1.15,2013-09-11 03:55:00,